Location: Chena
(64.8152°N, 147.9227°W)
Time: 13:05:09
(UTC+00:00)

N. Korean satellite - Pass Details

Date: 30 January 2021
Orbit: 451 x 503 km, 97.2° (Epoch: 28 February)

Event Time Altitude Azimuth Distance (km) Brightness Sun altitude
Rises 16:31:53 0° 16° (NNE) 2,523 10.2 -13.0°
Reaches altitude 10° 16:34:00 10° 11° (N) 1,634 9.2 -12.7°
Maximum altitude 16:37:22 47° 297° (WNW) 623 6.7 -12.4°
Drops below altitude 10° 16:40:41 10° 223° (SW) 1,602 8.9 -12.0°
Sets 16:42:44 0° 217° (SW) 2,468 9.9 -11.8°
